RADARSAT-2

Last updated on Thu Oct 23 2025 00:02:37 GMT+0000 (Coordinated Universal Time)

1 32382U 07061A 25295.48674769 .00000123 00000+0 64521-4 0 9993 2 32382 98.5812 300.8151 0001131 89.5511 270.5801 14.29981701931981
UTC large
Height (km)
Speed (km/s)
/
Latitude / Longitude
Inclination (degrees)
Orbital Period (minutes)
Azimuth
Elevation
Range (km)
Doppler Factor

Next 0 passes for location: London (51.5072 / 0.1276)

Sorry there are no passes over London.